Regional Weather Roundup
Issued by NWS

Home | Current Version | Previous Version | Graphics & Text | Print | Product List | Glossary On
Versions: 1 2 3 4 5 6 7 8 9 10 11 12 13 14 15 16 17 18 19 20 21 22 23 24 25 26 27 28 29 30 31 32 33 34 35 36 37 38 39 40 41 42 43 44 45 46 47 48 49 50
000
ASUS43 KFSD 240302
RWRSD

WEATHER ROUNDUP FOR SOUTH DAKOTA
NATIONAL WEATHER SERVICE SIOUX FALLS SD
1000 PM CDT FRI SEP 23 2016

NOTE: "FAIR" INDICATES FEW OR NO CLOUDS BELOW 12,000 FEET WITH NO
SIGNIFICANT WEATHER AND/OR OBSTRUCTIONS TO VISIBILITY.


SDZ001>005-009-010-012>017-240400-
NORTHWEST AND NORTH CENTRAL SOUTH DAKOTA

CITY           SKY/WX    TMP DP  RH WIND       PRES   REMARKS
BUFFALO          N/A     61  61 100 N13       29.76R
FAITH            N/A     61  61 100 NE10      29.73S
MOBRIDGE       CLEAR     69  63  81 E24G35    29.72R
$$

SDZ012>016-024>037-041>051-057-063-072>074-240400-
SOUTHWEST AND SOUTH CENTRAL SOUTH DAKOTA

CITY           SKY/WX    TMP DP  RH WIND       PRES   REMARKS
RAPID CTY ARPT LGT RAIN  62  61  96 N18G36    29.75F
PIERRE         CLEAR     76  57  51 SE13      29.73R
CUSTER         LGT RAIN  49  45  86 W17       29.90F
ELLSWORTH AFB  LGT RAIN  63  63 100 NW21      29.74
PHILIP         CLOUDY    70  65  84 NW14      29.71R
PINE RIDGE     CLOUDY    55  52  89 W13G20    29.85R
WINNER         FAIR      79  58  48 S25G33    29.74R
$$

SDZ004>011-016>023-039-040-240400-
NORTHEAST SOUTH DAKOTA

CITY           SKY/WX    TMP DP  RH WIND       PRES   REMARKS
ABERDEEN       CLEAR     67  63  87 SE20G31   29.83S
WATERTOWN      CLOUDY    67  65  93 SE13G24   29.92S
BROOKINGS      CLOUDY    68  66  94 SE17G23   29.92S
SISSETON         N/A     65  63  93 SE16      29.94S
$$

SDZ017-020-022-023-036>040-048>070-240400-
SOUTHEAST SOUTH DAKOTA

CITY           SKY/WX    TMP DP  RH WIND       PRES   REMARKS
SIOUX FALLS    PTCLDY    75  63  66 SE12      29.92R
HURON          CLEAR     69  65  86 SE10      29.80F
CHAMBERLAIN    CLEAR     76  59  57 SE13G18   29.77S
MITCHELL       CLEAR     76  59  55 SE13      29.83R
YANKTON        CLEAR     75  61  60 SE15      29.86R
$$

ABBREVIATIONS USED IN REMARKS
   TC - TEMPERATURE IN CELSIUS
  WCI - WIND CHILL INDEX
   HX - HEAT INDEX
  VSB - VISIBILITY





USA.gov is the U.S. government's official web portal to all federal, state and local government web resources and services.